Weather History for Poughkeepsie, NY

Change the Weather History Date:

Wednesday, November 17, 2010

  Actual Average Record
Temperature  
Mean Temperature 57 °F 41 °F  
Max Temperature 63 °F 52 °F 69 °F (1953)
Min Temperature 50 °F 31 °F 14 °F (1980)
Degree Days  
Heating Degree Days 8 24  
Month to date heating degree days 364 362  
Since 1 July heating degree days 818 938  
Cooling Degree Days 0 0  
Month to date cooling degree days 0 0  
Year to date cooling degree days 911 672  
Growing Degree Days 6 (Base 50)    
Moisture  
Dew Point 47 °F    
Average Humidity 75    
Maximum Humidity 100    
Minimum Humidity 43    
Precipitation  
Precipitation 0.60 in 0.12 in 1.88 in (2002)
Month to date precipitation 1.98 1.93  
Year to date precipitation 35.75 41.46  
Sea Level Pressure  
Sea Level Pressure 29.58 in    
Wind  
Wind Speed 13 mph (SW)    
Max Wind Speed 32 mph    
Max Gust Speed 46 mph    
Visibility 8 miles    
Events Rain , Thunderstorm    
T = Trace of Precipitation, MM = Missing Value Source: NWS Daily Summary

Daily Weather History Graph

Daily Weather History Graph

Search for Another Location

Airport:

Trip Planner

Search our weather history database for the weather conditions in past years. The results will help you decide how hot, cold, wet, or windy it might be!

Date:

Astronomy

Nov. 17, 2010 Rise Set
Actual Time 6:46 AM EST 4:33 PM EST
Civil Twilight 6:16 AM EST 5:03 PM EST
Nautical Twilight 5:43 AM EST 5:37 PM EST
Astronomical Twilight 5:10 AM EST 6:10 PM EST
Moon 2:06 PM EST (11/17) 2:40 AM EST (11/17)
Length of Visible Light 10h 46m
Length of Day
9h 46m
Waxing Gibbous, 85% of the Moon is Illuminated
Nov 17
Waxing Gibbous
Nov 21
Full
Nov 28
Last Quarter
Dec 5
New
Dec 13
First Quarter

Hourly Weather History & Observations

Time (EST) Temp. Dew Point Humidity Pressure Visibility Wind Dir Wind Speed Gust Speed Precip Events Conditions
12:35 AM 55.4 °F 53.6 °F 94% 29.67 in 5.0 mi ESE 10.4 mph - 0.06 in Rain Light Rain
12:53 AM 55.9 °F 54.0 °F 93% 29.64 in 8.0 mi ESE 12.7 mph - 0.07 in Rain Light Rain
1:36 AM 57.2 °F 55.4 °F 94% 29.61 in 9.0 mi SE 8.1 mph - 0.08 in Rain Light Rain
1:46 AM 57.2 °F 55.4 °F 94% 29.59 in 5.0 mi SE 4.6 mph - 0.10 in Rain Rain
1:53 AM 57.9 °F 55.9 °F 93% 29.58 in 6.0 mi SE 6.9 mph - 0.11 in Rain Light Rain
2:18 AM 59.0 °F 55.4 °F 88% 29.57 in 5.0 mi SE 10.4 mph - 0.06 in Rain Rain
2:53 AM 59.0 °F 57.0 °F 93% 29.54 in 6.0 mi SSE 4.6 mph - 0.12 in Rain Light Rain
3:29 AM 60.8 °F 57.2 °F 88% 29.49 in 10.0 mi ESE 8.1 mph - 0.04 in Rain Light Rain
3:53 AM 62.1 °F 59.0 °F 90% 29.47 in 10.0 mi Variable 5.8 mph - 0.04 in   Overcast
4:18 AM 62.6 °F 59.0 °F 88% 29.47 in 10.0 mi SSE 9.2 mph 18.4 mph N/A   Overcast
4:45 AM 62.6 °F 59.0 °F 88% 29.49 in 10.0 mi South 8.1 mph 18.4 mph N/A   Overcast
4:53 AM 62.1 °F 59.0 °F 90% 29.55 in 3.0 mi SW 32.2 mph 46.0 mph 0.10 in Rain Light Rain
4:55 AM 59.0 °F 57.2 °F 94% 29.56 in 1.5 mi WSW 28.8 mph 46.0 mph 0.05 in Rain Heavy Rain
5:03 AM 53.6 °F 51.8 °F 94% 29.54 in 1.5 mi WSW 11.5 mph 46.0 mph 0.12 in Rain , Thunderstorm Thunderstorms and Rain
5:06 AM 53.6 °F 51.8 °F 94% 29.54 in 3.0 mi WSW 9.2 mph 29.9 mph 0.13 in Rain , Thunderstorm Light Thunderstorms and Rain
5:14 AM 53.6 °F 50.0 °F 88% 29.52 in 7.0 mi Variable 5.8 mph 18.4 mph 0.14 in Rain , Thunderstorm Light Thunderstorms and Rain
5:24 AM 53.6 °F 50.0 °F 88% 29.51 in 7.0 mi SE 3.5 mph - 0.15 in Rain Light Rain
5:53 AM 52.0 °F 50.0 °F 93% 29.47 in 10.0 mi Variable 4.6 mph - 0.17 in Rain Light Rain
6:53 AM 52.0 °F 50.0 °F 93% 29.45 in 10.0 mi Calm Calm - 0.00 in   Clear
7:53 AM 52.0 °F 51.1 °F 97% 29.47 in 10.0 mi Calm Calm - N/A   Overcast
8:53 AM 59.0 °F 51.1 °F 75% 29.47 in 10.0 mi SW 12.7 mph 19.6 mph N/A   Mostly Cloudy
9:53 AM 57.0 °F 48.0 °F 72% 29.49 in 8.0 mi WSW 24.2 mph 41.4 mph 0.00 in Rain Light Rain
10:53 AM 55.9 °F 45.0 °F 67% 29.49 in 10.0 mi WSW 11.5 mph 20.7 mph 0.00 in   Mostly Cloudy
11:53 AM 57.9 °F 39.9 °F 51% 29.50 in 10.0 mi West 11.5 mph 19.6 mph N/A   Mostly Cloudy
12:53 PM 57.0 °F 37.0 °F 47% 29.51 in 10.0 mi WSW 21.9 mph 32.2 mph N/A   Overcast
1:53 PM 57.0 °F 37.0 °F 47% 29.53 in 10.0 mi West 16.1 mph 36.8 mph N/A   Overcast
2:53 PM 57.9 °F 36.0 °F 44% 29.56 in 10.0 mi SW 21.9 mph 31.1 mph N/A   Overcast
3:53 PM 55.9 °F 35.1 °F 45% 29.60 in 10.0 mi WSW 19.6 mph 31.1 mph N/A   Overcast
4:53 PM 53.1 °F 36.0 °F 52% 29.65 in 10.0 mi WSW 12.7 mph 23.0 mph N/A   Mostly Cloudy
5:53 PM 52.0 °F 35.1 °F 53% 29.68 in 10.0 mi West 10.4 mph 29.9 mph N/A   Overcast
6:53 PM 52.0 °F 34.0 °F 50% 29.72 in 10.0 mi West 11.5 mph 19.6 mph N/A   Overcast
7:53 PM 51.1 °F 34.0 °F 52% 29.75 in 10.0 mi WNW 12.7 mph 26.5 mph N/A   Overcast
9:53 PM 50.0 °F 34.0 °F 54% 29.81 in 10.0 mi WNW 9.2 mph 17.3 mph N/A   Overcast
10:53 PM 50.0 °F 32.0 °F 50% 29.83 in 10.0 mi West 15.0 mph 20.7 mph N/A   Overcast
11:53 PM 50.0 °F 30.9 °F 48% 29.87 in 10.0 mi WNW 10.4 mph 18.4 mph N/A   Overcast